Year,Month,Day,Hour,Minute,Value (Times are PST for temperature in C)
2021,06,27,00,00,27.80
2021,06,27,00,01,27.80
2021,06,27,00,02,27.80
2021,06,27,00,03,27.80
2021,06,27,00,04,27.70
2021,06,27,00,05,27.70
2021,06,27,00,06,27.70
2021,06,27,00,07,27.60
2021,06,27,00,08,27.50
2021,06,27,00,09,27.40
2021,06,27,00,10,27.30
2021,06,27,00,11,27.30
2021,06,27,00,12,27.20
2021,06,27,00,13,27.20
2021,06,27,00,14,27.20
2021,06,27,00,15,27.10
2021,06,27,00,16,27.10
2021,06,27,00,17,27.10
2021,06,27,00,18,27.00
2021,06,27,00,19,27.00
2021,06,27,00,20,26.90
2021,06,27,00,21,26.90
2021,06,27,00,22,26.90
2021,06,27,00,23,26.80
2021,06,27,00,24,26.80
2021,06,27,00,25,26.80
2021,06,27,00,26,26.70
2021,06,27,00,27,26.70
2021,06,27,00,28,26.70
2021,06,27,00,29,26.60
2021,06,27,00,30,26.50
2021,06,27,00,31,26.40
2021,06,27,00,32,26.30
2021,06,27,00,33,26.30
2021,06,27,00,34,26.20
2021,06,27,00,35,26.10
2021,06,27,00,36,26.10
2021,06,27,00,37,26.00
2021,06,27,00,38,25.90
2021,06,27,00,39,25.90
2021,06,27,00,40,25.90
2021,06,27,00,41,25.80
2021,06,27,00,42,25.80
2021,06,27,00,43,25.70
2021,06,27,00,44,25.70
2021,06,27,00,45,25.60
2021,06,27,00,46,25.50
2021,06,27,00,47,25.40
2021,06,27,00,48,25.40
2021,06,27,00,49,25.30
2021,06,27,00,50,25.30
2021,06,27,00,51,25.20
2021,06,27,00,52,25.20
2021,06,27,00,53,25.10
2021,06,27,00,54,25.00
2021,06,27,00,55,25.00
2021,06,27,00,56,25.00
2021,06,27,00,57,24.90
2021,06,27,00,58,24.80
2021,06,27,00,59,24.80
2021,06,27,01,00,24.80
2021,06,27,01,01,24.80
2021,06,27,01,02,24.70
2021,06,27,01,03,24.70
2021,06,27,01,04,24.60
2021,06,27,01,05,24.60
2021,06,27,01,06,24.60
2021,06,27,01,07,24.50
2021,06,27,01,08,24.50
2021,06,27,01,09,24.40
2021,06,27,01,10,24.40
2021,06,27,01,11,24.30
2021,06,27,01,12,24.30
2021,06,27,01,13,24.30
2021,06,27,01,14,24.20
2021,06,27,01,15,24.20
2021,06,27,01,16,24.20
2021,06,27,01,17,24.10
2021,06,27,01,18,24.10
2021,06,27,01,19,24.10
2021,06,27,01,20,24.00
2021,06,27,01,21,24.00
2021,06,27,01,22,24.00
2021,06,27,01,23,23.90
2021,06,27,01,24,23.90
2021,06,27,01,25,23.80
2021,06,27,01,26,23.80
2021,06,27,01,27,23.80
2021,06,27,01,28,23.80
2021,06,27,01,29,23.70
2021,06,27,01,30,23.70
2021,06,27,01,31,23.70
2021,06,27,01,32,23.70
2021,06,27,01,33,23.60
2021,06,27,01,34,23.60
2021,06,27,01,35,23.60
2021,06,27,01,36,23.60
2021,06,27,01,37,23.60
2021,06,27,01,38,23.70
2021,06,27,01,39,23.70
2021,06,27,01,40,23.70
2021,06,27,01,41,23.70
2021,06,27,01,42,23.70
2021,06,27,01,43,23.70
2021,06,27,01,44,23.60
2021,06,27,01,45,23.60
2021,06,27,01,46,23.50
2021,06,27,01,47,23.50
2021,06,27,01,48,23.40
2021,06,27,01,49,23.40
2021,06,27,01,50,23.40
2021,06,27,01,51,23.40
2021,06,27,01,52,23.40
2021,06,27,01,53,23.30
2021,06,27,01,54,23.30
2021,06,27,01,55,23.30
2021,06,27,01,56,23.30
2021,06,27,01,57,23.30
2021,06,27,01,58,23.30
2021,06,27,01,59,23.30
2021,06,27,02,00,23.30
2021,06,27,02,01,23.30
2021,06,27,02,02,23.30
2021,06,27,02,03,23.20
2021,06,27,02,04,23.20
2021,06,27,02,05,23.20
2021,06,27,02,06,23.20
2021,06,27,02,07,23.10
2021,06,27,02,08,23.10
2021,06,27,02,09,23.10
2021,06,27,02,10,23.10
2021,06,27,02,11,23.00
2021,06,27,02,12,23.00
2021,06,27,02,13,23.00
2021,06,27,02,14,23.00
2021,06,27,02,15,23.00
2021,06,27,02,16,22.90
2021,06,27,02,17,22.90
2021,06,27,02,18,22.90
2021,06,27,02,19,22.90
2021,06,27,02,20,22.90
2021,06,27,02,21,22.80
2021,06,27,02,22,22.80
2021,06,27,02,23,22.80
2021,06,27,02,24,22.80
2021,06,27,02,25,22.80
2021,06,27,02,26,22.80
2021,06,27,02,27,22.80
2021,06,27,02,28,22.70
2021,06,27,02,29,22.70
2021,06,27,02,30,22.70
2021,06,27,02,31,22.70
2021,06,27,02,32,22.70
2021,06,27,02,33,22.70
2021,06,27,02,34,22.70
2021,06,27,02,35,22.80
2021,06,27,02,36,22.90
2021,06,27,02,37,23.00
2021,06,27,02,38,23.10
2021,06,27,02,39,23.30
2021,06,27,02,40,23.30
2021,06,27,02,41,23.30
2021,06,27,02,42,23.30
2021,06,27,02,43,23.30
2021,06,27,02,44,23.40
2021,06,27,02,45,23.50
2021,06,27,02,46,23.70
2021,06,27,02,47,23.90
2021,06,27,02,48,24.10
2021,06,27,02,49,24.30
2021,06,27,02,50,24.40
2021,06,27,02,51,24.40
2021,06,27,02,52,24.40
2021,06,27,02,53,24.40
2021,06,27,02,54,24.40
2021,06,27,02,55,24.40
2021,06,27,02,56,24.40
2021,06,27,02,57,24.30
2021,06,27,02,58,24.30
2021,06,27,02,59,24.20
2021,06,27,03,00,24.10
2021,06,27,03,01,24.10
2021,06,27,03,02,24.00
2021,06,27,03,03,24.00
2021,06,27,03,04,23.90
2021,06,27,03,05,23.90
2021,06,27,03,06,23.90
2021,06,27,03,07,23.90
2021,06,27,03,08,23.80
2021,06,27,03,09,23.80
2021,06,27,03,10,23.80
2021,06,27,03,11,23.80
2021,06,27,03,12,23.70
2021,06,27,03,13,23.70
2021,06,27,03,14,23.60
2021,06,27,03,15,23.60
2021,06,27,03,16,23.60
2021,06,27,03,17,23.50
2021,06,27,03,18,23.50
2021,06,27,03,19,23.40
2021,06,27,03,20,23.40
2021,06,27,03,21,23.30
2021,06,27,03,22,23.30
2021,06,27,03,23,23.30
2021,06,27,03,24,23.20
2021,06,27,03,25,23.20
2021,06,27,03,26,23.10
2021,06,27,03,27,23.10
2021,06,27,03,28,23.10
2021,06,27,03,29,23.00
2021,06,27,03,30,22.90
2021,06,27,03,31,22.90
2021,06,27,03,32,22.90
2021,06,27,03,33,22.80
2021,06,27,03,34,22.80
2021,06,27,03,35,22.80
2021,06,27,03,36,22.80
2021,06,27,03,37,22.80
2021,06,27,03,38,22.80
2021,06,27,03,39,22.70
2021,06,27,03,40,22.70
2021,06,27,03,41,22.70
2021,06,27,03,42,22.70
2021,06,27,03,43,22.60
2021,06,27,03,44,22.60
2021,06,27,03,45,22.60
2021,06,27,03,46,22.60
2021,06,27,03,47,22.60
2021,06,27,03,48,22.60
2021,06,27,03,49,22.60
2021,06,27,03,50,22.50
2021,06,27,03,51,22.50
2021,06,27,03,52,22.50
2021,06,27,03,53,22.40
2021,06,27,03,54,22.40
2021,06,27,03,55,22.40
2021,06,27,03,56,22.30
2021,06,27,03,57,22.30
2021,06,27,03,58,22.30
2021,06,27,03,59,22.30
2021,06,27,04,00,22.30
2021,06,27,04,01,22.30
2021,06,27,04,02,22.30
2021,06,27,04,03,22.30
2021,06,27,04,04,22.30
2021,06,27,04,05,22.20
2021,06,27,04,06,22.20
2021,06,27,04,07,22.20
2021,06,27,04,08,22.20
2021,06,27,04,09,22.10
2021,06,27,04,10,22.10
2021,06,27,04,11,22.10
2021,06,27,04,12,22.10
2021,06,27,04,13,22.10
2021,06,27,04,14,22.10
2021,06,27,04,15,22.10
2021,06,27,04,16,22.00
2021,06,27,04,17,22.00
2021,06,27,04,18,21.90
2021,06,27,04,19,21.90
2021,06,27,04,20,21.80
2021,06,27,04,21,21.80
2021,06,27,04,22,21.80
2021,06,27,04,23,21.80
2021,06,27,04,24,21.80
2021,06,27,04,25,21.70
2021,06,27,04,26,21.70
2021,06,27,04,27,21.70
2021,06,27,04,28,21.70
2021,06,27,04,29,21.70
2021,06,27,04,30,21.60
2021,06,27,04,31,21.60
2021,06,27,04,32,21.60
2021,06,27,04,33,21.60
2021,06,27,04,34,21.50
2021,06,27,04,35,21.50
2021,06,27,04,36,21.50
2021,06,27,04,37,21.50
2021,06,27,04,38,21.50
2021,06,27,04,39,21.40
2021,06,27,04,40,21.40
2021,06,27,04,41,21.40
2021,06,27,04,42,21.40
2021,06,27,04,43,21.30
2021,06,27,04,44,21.40
2021,06,27,04,45,21.40
2021,06,27,04,46,21.40
2021,06,27,04,47,21.40
2021,06,27,04,48,21.40
2021,06,27,04,49,21.40
2021,06,27,04,50,21.40
2021,06,27,04,51,21.40
2021,06,27,04,52,21.40
2021,06,27,04,53,21.50
2021,06,27,04,54,21.50
2021,06,27,04,55,21.50
2021,06,27,04,56,21.50
2021,06,27,04,57,21.50
2021,06,27,04,58,21.60
2021,06,27,04,59,21.60
2021,06,27,05,00,21.60
2021,06,27,05,01,21.60
2021,06,27,05,02,21.70
2021,06,27,05,03,21.80
2021,06,27,05,04,21.90
2021,06,27,05,05,21.90
2021,06,27,05,06,22.00
2021,06,27,05,07,22.00
2021,06,27,05,08,22.10
2021,06,27,05,09,22.00
2021,06,27,05,10,22.10
2021,06,27,05,11,22.10
2021,06,27,05,12,22.10
2021,06,27,05,13,22.10
2021,06,27,05,14,22.10
2021,06,27,05,15,22.10
2021,06,27,05,16,22.20
2021,06,27,05,17,22.30
2021,06,27,05,18,22.40
2021,06,27,05,19,22.40
2021,06,27,05,20,22.50
2021,06,27,05,21,22.50
2021,06,27,05,22,22.60
2021,06,27,05,23,22.60
2021,06,27,05,24,22.70
2021,06,27,05,25,22.70
2021,06,27,05,26,22.70
2021,06,27,05,27,22.70
2021,06,27,05,28,22.70
2021,06,27,05,29,22.70
2021,06,27,05,30,22.80
2021,06,27,05,31,22.80
2021,06,27,05,32,22.90
2021,06,27,05,33,23.00
2021,06,27,05,34,23.00
2021,06,27,05,35,23.10
2021,06,27,05,36,23.10
2021,06,27,05,37,23.10
2021,06,27,05,38,23.10
2021,06,27,05,39,23.20
2021,06,27,05,40,23.20
2021,06,27,05,41,23.20
2021,06,27,05,42,23.20
2021,06,27,05,43,23.30
2021,06,27,05,44,23.40
2021,06,27,05,45,23.40
2021,06,27,05,46,23.50
2021,06,27,05,47,23.60
2021,06,27,05,48,23.70
2021,06,27,05,49,23.70
2021,06,27,05,50,23.80
2021,06,27,05,51,23.80
2021,06,27,05,52,23.80
2021,06,27,05,53,23.80
2021,06,27,05,54,23.80
2021,06,27,05,55,23.80
2021,06,27,05,56,23.80
2021,06,27,05,57,23.80
2021,06,27,05,58,23.80
2021,06,27,05,59,23.80
2021,06,27,06,00,23.90
2021,06,27,06,01,23.90
2021,06,27,06,02,24.00
2021,06,27,06,03,24.00
2021,06,27,06,04,24.00
2021,06,27,06,05,24.00
2021,06,27,06,06,24.00
2021,06,27,06,07,24.00
2021,06,27,06,08,24.00
2021,06,27,06,09,24.00
2021,06,27,06,10,24.00
2021,06,27,06,11,24.10
2021,06,27,06,12,24.00
2021,06,27,06,13,24.10
2021,06,27,06,14,24.00
2021,06,27,06,15,24.00
2021,06,27,06,16,24.00
2021,06,27,06,17,24.00
2021,06,27,06,18,24.00
2021,06,27,06,19,24.00
2021,06,27,06,20,24.00
2021,06,27,06,21,24.00
2021,06,27,06,22,24.10
2021,06,27,06,23,24.10
2021,06,27,06,24,24.10
2021,06,27,06,25,24.10
2021,06,27,06,26,24.10
2021,06,27,06,27,24.20
2021,06,27,06,28,24.10
2021,06,27,06,29,24.20
2021,06,27,06,30,24.20
2021,06,27,06,31,24.20
2021,06,27,06,32,24.20
2021,06,27,06,33,24.20
2021,06,27,06,34,24.20
2021,06,27,06,35,24.20
2021,06,27,06,36,24.30
2021,06,27,06,37,24.30
2021,06,27,06,38,24.40
2021,06,27,06,39,24.40
2021,06,27,06,40,24.50
2021,06,27,06,41,24.60
2021,06,27,06,42,24.70
2021,06,27,06,43,24.80
2021,06,27,06,44,24.90
2021,06,27,06,45,25.00
2021,06,27,06,46,25.10
2021,06,27,06,47,25.20
2021,06,27,06,48,25.30
2021,06,27,06,49,25.40
2021,06,27,06,50,25.40
2021,06,27,06,51,25.60
2021,06,27,06,52,25.70
2021,06,27,06,53,25.80
2021,06,27,06,54,26.00
2021,06,27,06,55,26.10
2021,06,27,06,56,26.20
2021,06,27,06,57,26.30
2021,06,27,06,58,26.30
2021,06,27,06,59,26.40
2021,06,27,07,00,26.40
2021,06,27,07,01,26.50
2021,06,27,07,02,26.60
2021,06,27,07,03,26.60
2021,06,27,07,04,26.70
2021,06,27,07,05,26.80
2021,06,27,07,06,26.80
2021,06,27,07,07,26.80
2021,06,27,07,08,26.90
2021,06,27,07,09,26.90
2021,06,27,07,10,27.00
2021,06,27,07,11,27.00
2021,06,27,07,12,27.00
2021,06,27,07,13,27.10
2021,06,27,07,14,27.10
2021,06,27,07,15,27.10
2021,06,27,07,16,27.10
2021,06,27,07,17,27.20
2021,06,27,07,18,27.20
2021,06,27,07,19,27.20
2021,06,27,07,20,27.30
2021,06,27,07,21,27.30
2021,06,27,07,22,27.30
2021,06,27,07,23,27.40
2021,06,27,07,24,27.40
2021,06,27,07,25,27.40
2021,06,27,07,26,27.40
2021,06,27,07,27,27.50
2021,06,27,07,28,27.40
2021,06,27,07,29,27.50
2021,06,27,07,30,27.50
2021,06,27,07,31,27.50
2021,06,27,07,32,27.60
2021,06,27,07,33,27.60
2021,06,27,07,34,27.70
2021,06,27,07,35,27.80
2021,06,27,07,36,27.80
2021,06,27,07,37,27.80
2021,06,27,07,38,27.80
2021,06,27,07,39,27.90
2021,06,27,07,40,27.90
2021,06,27,07,41,28.00
2021,06,27,07,42,28.00
2021,06,27,07,43,28.10
2021,06,27,07,44,28.10
2021,06,27,07,45,28.10
2021,06,27,07,46,28.20
2021,06,27,07,47,28.20
2021,06,27,07,48,28.20
2021,06,27,07,49,28.20
2021,06,27,07,50,28.20
2021,06,27,07,51,28.20
2021,06,27,07,52,28.20
2021,06,27,07,53,28.30
2021,06,27,07,54,28.30
2021,06,27,07,55,28.30
2021,06,27,07,56,28.30
2021,06,27,07,57,28.30
2021,06,27,07,58,28.30
2021,06,27,07,59,28.30
2021,06,27,08,00,28.30
2021,06,27,08,01,28.30
2021,06,27,08,02,28.30
2021,06,27,08,03,28.30
2021,06,27,08,04,28.30
2021,06,27,08,05,28.30
2021,06,27,08,06,28.30
2021,06,27,08,07,28.30
2021,06,27,08,08,28.30
2021,06,27,08,09,28.30
2021,06,27,08,10,28.30
2021,06,27,08,11,28.30
2021,06,27,08,12,28.30
2021,06,27,08,13,28.30
2021,06,27,08,14,28.30
2021,06,27,08,15,28.30
2021,06,27,08,16,28.30
2021,06,27,08,17,28.30
2021,06,27,08,18,28.30
2021,06,27,08,19,28.30
2021,06,27,08,20,28.30
2021,06,27,08,21,28.30
2021,06,27,08,22,28.30
2021,06,27,08,23,28.30
2021,06,27,08,24,28.30
2021,06,27,08,25,28.40
2021,06,27,08,26,28.40
2021,06,27,08,27,28.40
2021,06,27,08,28,28.40
2021,06,27,08,29,28.40
2021,06,27,08,30,28.50
2021,06,27,08,31,28.60
2021,06,27,08,32,28.60
2021,06,27,08,33,28.60
2021,06,27,08,34,28.60
2021,06,27,08,35,28.70
2021,06,27,08,36,28.70
2021,06,27,08,37,28.70
2021,06,27,08,38,28.80
2021,06,27,08,39,28.80
2021,06,27,08,40,28.80
2021,06,27,08,41,28.80
2021,06,27,08,42,28.80
2021,06,27,08,43,28.90
2021,06,27,08,44,28.90
2021,06,27,08,45,28.90
2021,06,27,08,46,28.90
2021,06,27,08,47,28.90
2021,06,27,08,48,29.00
2021,06,27,08,49,29.00
2021,06,27,08,50,29.00
2021,06,27,08,51,29.00
2021,06,27,08,52,29.10
2021,06,27,08,53,29.10
2021,06,27,08,54,29.10
2021,06,27,08,55,29.20
2021,06,27,08,56,29.20
2021,06,27,08,57,29.20
2021,06,27,08,58,29.20
2021,06,27,08,59,29.30
2021,06,27,09,00,29.30
2021,06,27,09,01,29.40
2021,06,27,09,02,29.40
2021,06,27,09,03,29.40
2021,06,27,09,04,29.50
2021,06,27,09,05,29.50
2021,06,27,09,06,29.60
2021,06,27,09,07,29.60
2021,06,27,09,08,29.60
2021,06,27,09,09,29.60
2021,06,27,09,10,29.60
2021,06,27,09,11,29.60
2021,06,27,09,12,29.50
2021,06,27,09,13,29.40
2021,06,27,09,14,29.40
2021,06,27,09,15,29.40
2021,06,27,09,16,29.40
2021,06,27,09,17,29.40
2021,06,27,09,18,29.50
2021,06,27,09,19,29.60
2021,06,27,09,20,29.60
2021,06,27,09,21,29.60
2021,06,27,09,22,29.70
2021,06,27,09,23,29.80
2021,06,27,09,24,29.80
2021,06,27,09,25,29.90
2021,06,27,09,26,29.90
2021,06,27,09,27,29.90
2021,06,27,09,28,29.90
2021,06,27,09,29,30.00
2021,06,27,09,30,30.00
2021,06,27,09,31,30.00
2021,06,27,09,32,30.00
2021,06,27,09,33,30.00
2021,06,27,09,34,30.00
2021,06,27,09,35,30.00
2021,06,27,09,36,29.90
2021,06,27,09,37,29.90
2021,06,27,09,38,29.90
2021,06,27,09,39,29.90
2021,06,27,09,40,29.90
2021,06,27,09,41,29.90
2021,06,27,09,42,30.00
2021,06,27,09,43,29.90
2021,06,27,09,44,30.00
2021,06,27,09,45,30.00
2021,06,27,09,46,30.10
2021,06,27,09,47,30.10
2021,06,27,09,48,30.20
2021,06,27,09,49,30.20
2021,06,27,09,50,30.30
2021,06,27,09,51,30.30
2021,06,27,09,52,30.40
2021,06,27,09,53,30.40
2021,06,27,09,54,30.40
2021,06,27,09,55,30.40
2021,06,27,09,56,30.40
2021,06,27,09,57,30.40
2021,06,27,09,58,30.40
2021,06,27,09,59,30.50
2021,06,27,10,00,30.40
2021,06,27,10,01,30.40
2021,06,27,10,02,30.40
2021,06,27,10,03,30.40
2021,06,27,10,04,30.40
2021,06,27,10,05,30.50
2021,06,27,10,06,30.60
2021,06,27,10,07,30.70
2021,06,27,10,08,30.80
2021,06,27,10,09,30.80
2021,06,27,10,10,30.90
2021,06,27,10,11,30.90
2021,06,27,10,12,30.90
2021,06,27,10,13,30.90
2021,06,27,10,14,30.90
2021,06,27,10,15,31.00
2021,06,27,10,16,31.00
2021,06,27,10,17,31.00
2021,06,27,10,18,31.00
2021,06,27,10,19,31.10
2021,06,27,10,20,31.00
2021,06,27,10,21,31.00
2021,06,27,10,22,31.00
2021,06,27,10,23,31.10
2021,06,27,10,24,31.10
2021,06,27,10,25,31.20
2021,06,27,10,26,31.30
2021,06,27,10,27,31.30
2021,06,27,10,28,31.40
2021,06,27,10,29,31.40
2021,06,27,10,30,31.50
2021,06,27,10,31,31.50
2021,06,27,10,32,31.50
2021,06,27,10,33,31.40
2021,06,27,10,34,31.40
2021,06,27,10,35,31.40
2021,06,27,10,36,31.40
2021,06,27,10,37,31.50
2021,06,27,10,38,31.40
2021,06,27,10,39,31.40
2021,06,27,10,40,31.40
2021,06,27,10,41,31.40
2021,06,27,10,42,31.50
2021,06,27,10,43,31.60
2021,06,27,10,44,31.70
2021,06,27,10,45,31.80
2021,06,27,10,46,31.80
2021,06,27,10,47,31.80
2021,06,27,10,48,31.80
2021,06,27,10,49,31.90
2021,06,27,10,50,31.90
2021,06,27,10,51,31.90
2021,06,27,10,52,31.90
2021,06,27,10,53,31.80
2021,06,27,10,54,31.80
2021,06,27,10,55,31.80
2021,06,27,10,56,31.90
2021,06,27,10,57,31.90
2021,06,27,10,58,32.00
2021,06,27,10,59,32.10
2021,06,27,11,00,32.10
2021,06,27,11,01,32.10
2021,06,27,11,02,32.20
2021,06,27,11,03,32.30
2021,06,27,11,04,32.40
2021,06,27,11,05,32.50
2021,06,27,11,06,32.50
2021,06,27,11,07,32.50
2021,06,27,11,08,32.50
2021,06,27,11,09,32.50
2021,06,27,11,10,32.50
2021,06,27,11,11,32.40
2021,06,27,11,12,32.40
2021,06,27,11,13,32.30
2021,06,27,11,14,32.30
2021,06,27,11,15,32.30
2021,06,27,11,16,32.30
2021,06,27,11,17,32.30
2021,06,27,11,18,32.30
2021,06,27,11,19,32.40
2021,06,27,11,20,32.50
2021,06,27,11,21,32.50
2021,06,27,11,22,32.40
2021,06,27,11,23,32.40
2021,06,27,11,24,32.30
2021,06,27,11,25,32.30
2021,06,27,11,26,32.40
2021,06,27,11,27,32.40
2021,06,27,11,28,32.50
2021,06,27,11,29,32.50
2021,06,27,11,30,32.50
2021,06,27,11,31,32.50
2021,06,27,11,32,32.50
2021,06,27,11,33,32.50
2021,06,27,11,34,32.50
2021,06,27,11,35,32.50
2021,06,27,11,36,32.60
2021,06,27,11,37,32.60
2021,06,27,11,38,32.70
2021,06,27,11,39,32.80
2021,06,27,11,40,32.80
2021,06,27,11,41,32.80
2021,06,27,11,42,32.80
2021,06,27,11,43,32.80
2021,06,27,11,44,32.80
2021,06,27,11,45,32.90
2021,06,27,11,46,32.90
2021,06,27,11,47,32.90
2021,06,27,11,48,33.00
2021,06,27,11,49,33.00
2021,06,27,11,50,33.00
2021,06,27,11,51,32.90
2021,06,27,11,52,32.90
2021,06,27,11,53,32.90
2021,06,27,11,54,32.80
2021,06,27,11,55,32.80
2021,06,27,11,56,32.70
2021,06,27,11,57,32.70
2021,06,27,11,58,32.80
2021,06,27,11,59,32.90
2021,06,27,12,00,33.00
2021,06,27,12,01,33.00
2021,06,27,12,02,33.10
2021,06,27,12,03,33.10
2021,06,27,12,04,33.10
2021,06,27,12,05,33.10
2021,06,27,12,06,33.20
2021,06,27,12,07,33.20
2021,06,27,12,08,33.20
2021,06,27,12,09,33.20
2021,06,27,12,10,33.30
2021,06,27,12,11,33.30
2021,06,27,12,12,33.30
2021,06,27,12,13,33.20
2021,06,27,12,14,33.20
2021,06,27,12,15,33.20
2021,06,27,12,16,33.20
2021,06,27,12,17,33.30
2021,06,27,12,18,33.30
2021,06,27,12,19,33.40
2021,06,27,12,20,33.40
2021,06,27,12,21,33.60
2021,06,27,12,22,33.70
2021,06,27,12,23,33.70
2021,06,27,12,24,33.80
2021,06,27,12,25,33.90
2021,06,27,12,26,34.00
2021,06,27,12,27,34.00
2021,06,27,12,28,34.10
2021,06,27,12,29,34.20
2021,06,27,12,30,34.20
2021,06,27,12,31,34.20
2021,06,27,12,32,34.20
2021,06,27,12,33,34.20
2021,06,27,12,34,34.20
2021,06,27,12,35,34.30
2021,06,27,12,36,34.30
2021,06,27,12,37,34.40
2021,06,27,12,38,34.30
2021,06,27,12,39,34.30
2021,06,27,12,40,34.30
2021,06,27,12,41,34.30
2021,06,27,12,42,34.30
2021,06,27,12,43,34.30
2021,06,27,12,44,34.30
2021,06,27,12,45,34.20
2021,06,27,12,46,34.10
2021,06,27,12,47,34.10
2021,06,27,12,48,34.10
2021,06,27,12,49,34.10
2021,06,27,12,50,34.20
2021,06,27,12,51,34.30
2021,06,27,12,52,34.40
2021,06,27,12,53,34.40
2021,06,27,12,54,34.40
2021,06,27,12,55,34.40
2021,06,27,12,56,34.30
2021,06,27,12,57,34.40
2021,06,27,12,58,34.30
2021,06,27,12,59,34.30
2021,06,27,13,00,34.30
2021,06,27,13,01,34.30
2021,06,27,13,02,34.30
2021,06,27,13,03,34.30
2021,06,27,13,04,34.20
2021,06,27,13,05,34.20
2021,06,27,13,06,34.20
2021,06,27,13,07,34.20
2021,06,27,13,08,34.20
2021,06,27,13,09,34.40
2021,06,27,13,10,34.50
2021,06,27,13,11,34.70
2021,06,27,13,12,34.70
2021,06,27,13,13,34.70
2021,06,27,13,14,34.70
2021,06,27,13,15,34.70
2021,06,27,13,16,34.70
2021,06,27,13,17,34.70
2021,06,27,13,18,34.70
2021,06,27,13,19,34.70
2021,06,27,13,20,34.70
2021,06,27,13,21,34.70
2021,06,27,13,22,34.80
2021,06,27,13,23,34.80
2021,06,27,13,24,34.90
2021,06,27,13,25,35.00
2021,06,27,13,26,35.00
2021,06,27,13,27,34.90
2021,06,27,13,28,34.80
2021,06,27,13,29,34.80
2021,06,27,13,30,34.70
2021,06,27,13,31,34.70
2021,06,27,13,32,34.80
2021,06,27,13,33,34.80
2021,06,27,13,34,34.90
2021,06,27,13,35,34.90
2021,06,27,13,36,34.80
2021,06,27,13,37,34.80
2021,06,27,13,38,34.80
2021,06,27,13,39,34.80
2021,06,27,13,40,34.90
2021,06,27,13,41,34.90
2021,06,27,13,42,35.00
2021,06,27,13,43,35.00
2021,06,27,13,44,35.00
2021,06,27,13,45,34.90
2021,06,27,13,46,34.90
2021,06,27,13,47,35.00
2021,06,27,13,48,35.00
2021,06,27,13,49,35.00
2021,06,27,13,50,35.00
2021,06,27,13,51,34.90
2021,06,27,13,52,34.90
2021,06,27,13,53,34.80
2021,06,27,13,54,34.80
2021,06,27,13,55,34.80
2021,06,27,13,56,34.80
2021,06,27,13,57,34.90
2021,06,27,13,58,34.90
2021,06,27,13,59,35.00
2021,06,27,14,00,35.10
2021,06,27,14,01,35.10
2021,06,27,14,02,35.20
2021,06,27,14,03,35.20
2021,06,27,14,04,35.20
2021,06,27,14,05,35.30
2021,06,27,14,06,35.30
2021,06,27,14,07,35.30
2021,06,27,14,08,35.30
2021,06,27,14,09,35.20
2021,06,27,14,10,35.10
2021,06,27,14,11,34.90
2021,06,27,14,12,34.80
2021,06,27,14,13,34.60
2021,06,27,14,14,34.60
2021,06,27,14,15,34.60
2021,06,27,14,16,34.70
2021,06,27,14,17,34.80
2021,06,27,14,18,34.80
2021,06,27,14,19,34.90
2021,06,27,14,20,35.00
2021,06,27,14,21,35.10
2021,06,27,14,22,35.10
2021,06,27,14,23,35.10
2021,06,27,14,24,35.00
2021,06,27,14,25,35.00
2021,06,27,14,26,35.00
2021,06,27,14,27,34.90
2021,06,27,14,28,34.90
2021,06,27,14,29,35.00
2021,06,27,14,30,35.00
2021,06,27,14,31,35.10
2021,06,27,14,32,35.10
2021,06,27,14,33,35.20
2021,06,27,14,34,35.20
2021,06,27,14,35,35.30
2021,06,27,14,36,35.30
2021,06,27,14,37,35.40
2021,06,27,14,38,35.50
2021,06,27,14,39,35.50
2021,06,27,14,40,35.40
2021,06,27,14,41,35.30
2021,06,27,14,42,35.30
2021,06,27,14,43,35.30
2021,06,27,14,44,35.30
2021,06,27,14,45,35.40
2021,06,27,14,46,35.40
2021,06,27,14,47,35.50
2021,06,27,14,48,35.60
2021,06,27,14,49,35.50
2021,06,27,14,50,35.50
2021,06,27,14,51,35.50
2021,06,27,14,52,35.40
2021,06,27,14,53,35.40
2021,06,27,14,54,35.50
2021,06,27,14,55,35.60
2021,06,27,14,56,35.60
2021,06,27,14,57,35.60
2021,06,27,14,58,35.70
2021,06,27,14,59,35.80
2021,06,27,15,00,35.80
2021,06,27,15,01,35.90
2021,06,27,15,02,35.90
2021,06,27,15,03,36.00
2021,06,27,15,04,36.10
2021,06,27,15,05,36.10
2021,06,27,15,06,36.10
2021,06,27,15,07,36.00
2021,06,27,15,08,35.90
2021,06,27,15,09,35.80
2021,06,27,15,10,35.80
2021,06,27,15,11,35.80
2021,06,27,15,12,35.90
2021,06,27,15,13,36.00
2021,06,27,15,14,36.10
2021,06,27,15,15,36.20
2021,06,27,15,16,36.20
2021,06,27,15,17,36.20
2021,06,27,15,18,36.30
2021,06,27,15,19,36.30
2021,06,27,15,20,36.40
2021,06,27,15,21,36.50
2021,06,27,15,22,36.60
2021,06,27,15,23,36.70
2021,06,27,15,24,36.80
2021,06,27,15,25,36.90
2021,06,27,15,26,36.80
2021,06,27,15,27,36.80
2021,06,27,15,28,36.80
2021,06,27,15,29,36.70
2021,06,27,15,30,36.60
2021,06,27,15,31,36.60
2021,06,27,15,32,36.60
2021,06,27,15,33,36.50
2021,06,27,15,34,36.50
2021,06,27,15,35,36.50
2021,06,27,15,36,36.50
2021,06,27,15,37,36.60
2021,06,27,15,38,36.70
2021,06,27,15,39,36.80
2021,06,27,15,40,36.80
2021,06,27,15,41,36.90
2021,06,27,15,42,36.80
2021,06,27,15,43,36.70
2021,06,27,15,44,36.60
2021,06,27,15,45,36.60
2021,06,27,15,46,36.60
2021,06,27,15,47,36.70
2021,06,27,15,48,36.70
2021,06,27,15,49,36.80
2021,06,27,15,50,36.90
2021,06,27,15,51,36.90
2021,06,27,15,52,36.90
2021,06,27,15,53,36.90
2021,06,27,15,54,36.90
2021,06,27,15,55,37.00
2021,06,27,15,56,37.00
2021,06,27,15,57,37.10
2021,06,27,15,58,37.00
2021,06,27,15,59,37.00
2021,06,27,16,00,37.10
2021,06,27,16,01,37.20
2021,06,27,16,02,37.10
2021,06,27,16,03,37.10
2021,06,27,16,04,37.10
2021,06,27,16,05,37.10
2021,06,27,16,06,37.20
2021,06,27,16,07,37.20
2021,06,27,16,08,37.20
2021,06,27,16,09,37.20
2021,06,27,16,10,37.10
2021,06,27,16,11,37.20
2021,06,27,16,12,37.20
2021,06,27,16,13,37.20
2021,06,27,16,14,37.30
2021,06,27,16,15,37.40
2021,06,27,16,16,37.30
2021,06,27,16,17,37.30
2021,06,27,16,18,37.30
2021,06,27,16,19,37.30
2021,06,27,16,20,37.40
2021,06,27,16,21,37.30
2021,06,27,16,22,37.40
2021,06,27,16,23,37.40
2021,06,27,16,24,37.30
2021,06,27,16,25,37.40
2021,06,27,16,26,37.40
2021,06,27,16,27,37.50
2021,06,27,16,28,37.60
2021,06,27,16,29,37.70
2021,06,27,16,30,37.70
2021,06,27,16,31,37.70
2021,06,27,16,32,37.70
2021,06,27,16,33,37.80
2021,06,27,16,34,37.80
2021,06,27,16,35,37.80
2021,06,27,16,36,37.80
2021,06,27,16,37,37.80
2021,06,27,16,38,37.80
2021,06,27,16,39,37.90
2021,06,27,16,40,37.80
2021,06,27,16,41,37.80
2021,06,27,16,42,37.70
2021,06,27,16,43,37.70
2021,06,27,16,44,37.70
2021,06,27,16,45,37.60
2021,06,27,16,46,37.60
2021,06,27,16,47,37.60
2021,06,27,16,48,37.50
2021,06,27,16,49,37.50
2021,06,27,16,50,37.40
2021,06,27,16,51,37.40
2021,06,27,16,52,37.50
2021,06,27,16,53,37.50
2021,06,27,16,54,37.50
2021,06,27,16,55,37.60
2021,06,27,16,56,37.70
2021,06,27,16,57,37.70
2021,06,27,16,58,37.70
2021,06,27,16,59,37.70
2021,06,27,17,00,37.70
2021,06,27,17,01,37.80
2021,06,27,17,02,37.80
2021,06,27,17,03,37.80
2021,06,27,17,04,37.80
2021,06,27,17,05,37.80
2021,06,27,17,06,37.80
2021,06,27,17,07,37.80
2021,06,27,17,08,37.80
2021,06,27,17,09,37.90
2021,06,27,17,10,38.10
2021,06,27,17,11,38.10
2021,06,27,17,12,38.10
2021,06,27,17,13,38.00
2021,06,27,17,14,37.90
2021,06,27,17,15,38.00
2021,06,27,17,16,37.90
2021,06,27,17,17,37.90
2021,06,27,17,18,37.90
2021,06,27,17,19,37.90